| time (UTC) | temp C | wind direction | speed KPH | gust KPH | rain 1hr cm | rain 24hr cm | rain mn cm | humidity % | barometer mb |
| 20260504220924 | 25 | 134 | 1.6 | 9.7 | 0.00 | 0.64 | 0.64 | 59 | 1002.4 |
| 20260504220003 | 25 | 138 | 1.6 | 12.9 | 0.00 | 0.64 | 0.64 | 59 | 1002.3 |
| 20260504215424 | 25 | 136 | 1.6 | 11.3 | 0.00 | 0.64 | 0.64 | 58 | 1002.3 |
| 20260504214503 | 25 | 139 | 1.6 | 12.9 | 0.00 | 0.64 | 0.64 | 59 | 1002.4 |
| 20260504213603 | 25 | 137 | 1.6 | 17.7 | 0.00 | 0.64 | 0.64 | 61 | 1002.4 |
| 20260504212703 | 25 | 138 | 1.6 | 12.9 | 0.00 | 0.64 | 0.64 | 65 | 1002.5 |
| 20260504211803 | 25 | 135 | 0.0 | 4.8 | 0.00 | 0.64 | 0.64 | 64 | 1002.6 |
| 20260504210903 | 24 | 136 | 1.6 | 8.0 | 0.00 | 0.64 | 0.64 | 65 | 1002.6 |
| 20260504210004 | 24 | 144 | 1.6 | 8.0 | 0.00 | 0.64 | 0.64 | 63 | 1002.7 |
| 20260504205403 | 24 | 140 | 0.0 | 4.8 | 0.00 | 0.64 | 0.64 | 65 | 1003.0 |
| 20260504204503 | 24 | 135 | 1.6 | 9.7 | 0.00 | 0.64 | 0.64 | 66 | 1003.1 |
| 20260504203603 | 23 | 142 | 1.6 | 9.7 | 0.00 | 0.64 | 0.64 | 67 | 1003.2 |
| 20260504202724 | 23 | 138 | 1.6 | 11.3 | 0.00 | 0.64 | 0.64 | 66 | 1003.2 |
| 20260504201824 | 23 | 142 | 1.6 | 12.9 | 0.00 | 0.64 | 0.64 | 72 | 1003.3 |
| 20260504200903 | 22 | 132 | 1.6 | 11.3 | 0.00 | 0.64 | 0.64 | 74 | 1003.3 |
| 20260504200003 | 22 | 141 | 3.2 | 11.3 | 0.00 | 0.64 | 0.64 | 75 | 1003.2 |
| 20260504195403 | 22 | 140 | 3.2 | 14.5 | 0.00 | 0.64 | 0.64 | 77 | 1003.2 |
| 20260504194524 | 21 | 134 | 1.6 | 6.4 | 0.00 | 0.64 | 0.64 | 82 | 1003.3 |
| 20260504193624 | 20 | 144 | 1.6 | 11.3 | 0.00 | 0.64 | 0.64 | 83 | 1003.7 |
| 20260504192703 | 20 | 139 | 0.0 | 3.2 | 0.00 | 0.64 | 0.64 | 87 | 1003.9 |
| 20260504191803 | 18 | 144 | 1.6 | 11.3 | 0.00 | 0.64 | 0.64 | 89 | 1003.7 |
| 20260504190903 | 17 | 141 | 3.2 | 12.9 | 0.00 | 0.64 | 0.64 | 88 | 1003.6 |
| 20260504190004 | 17 | 136 | 0.0 | 11.3 | 0.03 | 0.64 | 0.64 | 91 | 1003.8 |
| 20260504185403 | 17 | 134 | 0.0 | 1.6 | 0.03 | 0.64 | 0.64 | 90 | 1004.8 |
| 20260504184524 | 17 | 134 | 0.0 | 1.6 | 0.05 | 0.64 | 0.64 | 89 | 1005.2 |
| 20260504183624 | 17 | 143 | 0.0 | 1.6 | 0.08 | 0.64 | 0.64 | 90 | 1005.2 |
| 20260504182703 | 17 | 146 | 0.0 | 4.8 | 0.18 | 0.64 | 0.64 | 89 | 1004.9 |
| 20260504181803 | 16 | 142 | 1.6 | 11.3 | 0.33 | 0.64 | 0.64 | 88 | 1004.8 |
| 20260504180903 | 16 | 143 | 1.6 | 11.3 | 0.41 | 0.64 | 0.64 | 89 | 1004.9 |
| 20260504180024 | 16 | 144 | 4.8 | 16.1 | 0.38 | 0.61 | 0.61 | 89 | 1004.7 |
| 20260504175403 | 16 | 143 | 3.2 | 12.9 | 0.41 | 0.61 | 0.61 | 90 | 1004.7 |
| 20260504174503 | 16 | 130 | 1.6 | 3.2 | 0.43 | 0.58 | 0.58 | 91 | 1005.7 |
| 20260504173624 | 16 | 130 | 0.0 | 3.2 | 0.48 | 0.56 | 0.58 | 91 | 1005.5 |
| 20260504172703 | 16 | 131 | 0.0 | 1.6 | 0.46 | 0.46 | 0.46 | 90 | 1005.4 |
| 20260504171803 | 16 | 130 | 1.6 | 3.2 | 0.30 | 0.30 | 0.30 | 87 | 1005.5 |
| 20260504170903 | 16 | 148 | 0.0 | 3.2 | 0.23 | 0.23 | 0.23 | 86 | 1005.7 |
| 20260504150924 | 20 | 137 | 1.6 | 3.2 | 0.00 | 0.00 | 0.00 | 62 | 1007.1 |
| 20260504140903 | 20 | 144 | 3.2 | 11.3 | 0.00 | 0.00 | 0.00 | 64 | 1006.9 |
| 20260504081803 | 17 | 0 | 0.0 | 0.0 | 0.00 | 0.00 | 0.00 | 70 | 1008.0 |
| 20260504080903 | 17 | 0 | 0.0 | 0.0 | 0.00 | 0.00 | 0.00 | 69 | 1007.9 |
| 20260504045403 | 20 | 136 | 3.2 | 8.0 | 0.00 | 0.00 | 0.00 | 56 | 1007.5 |
| 20260504044504 | 20 | 148 | 3.2 | 8.0 | 0.00 | 0.00 | 0.00 | 56 | 1007.6 |
| 20260504043603 | 20 | 163 | 1.6 | 11.3 | 0.00 | 0.00 | 0.00 | 55 | 1007.8 |
| 20260504042703 | 20 | 148 | 1.6 | 16.1 | 0.00 | 0.00 | 0.00 | 54 | 1008.2 |
| 20260504041803 | 20 | 152 | 1.6 | 9.7 | 0.00 | 0.00 | 0.00 | 54 | 1008.4 |
| 20260504040924 | 20 | 181 | 3.2 | 9.7 | 0.00 | 0.00 | 0.00 | 54 | 1008.5 |
| 20260504040003 | 20 | 159 | 1.6 | 4.8 | 0.00 | 0.00 | 0.00 | 54 | 1008.0 |
| 20260504035403 | 20 | 134 | 1.6 | 6.4 | 0.00 | 0.00 | 0.00 | 54 | 1007.9 |
| 20260504034503 | 20 | 147 | 1.6 | 9.7 | 0.00 | 0.00 | 0.00 | 55 | 1008.7 |
| 20260504033603 | 20 | 138 | 1.6 | 4.8 | 0.00 | 0.00 | 0.00 | 53 | 1008.9 |
| 20260504032703 | 20 | 136 | 1.6 | 3.2 | 0.00 | 0.00 | 0.00 | 53 | 1009.1 |
| 20260504031803 | 20 | 141 | 1.6 | 4.8 | 0.00 | 0.00 | 0.00 | 53 | 1009.1 |
| 20260504030903 | 20 | 127 | 0.0 | 1.6 | 0.00 | 0.00 | 0.00 | 53 | 1009.1 |
| 20260504030003 | 21 | 133 | 1.6 | 3.2 | 0.00 | 0.00 | 0.00 | 52 | 1009.0 |
| 20260504025403 | 21 | 139 | 1.6 | 3.2 | 0.00 | 0.00 | 0.00 | 51 | 1008.9 |
| 20260504024503 | 21 | 127 | 1.6 | 3.2 | 0.00 | 0.00 | 0.00 | 51 | 1009.0 |
| 20260504023603 | 21 | 122 | 0.0 | 4.8 | 0.00 | 0.00 | 0.00 | 51 | 1009.1 |
| 20260504022703 | 21 | 132 | 1.6 | 6.4 | 0.00 | 0.00 | 0.00 | 50 | 1009.0 |
| 20260504021803 | 22 | 326 | 0.0 | 8.0 | 0.00 | 0.00 | 0.00 | 50 | 1009.0 |
| 20260504020903 | 22 | 355 | 1.6 | 8.0 | 0.00 | 0.00 | 0.00 | 48 | 1008.9 |
| 20260504020004 | 22 | 146 | 1.6 | 8.0 | 0.00 | 0.00 | 0.00 | 48 | 1008.5 |
| 20260504015403 | 22 | 149 | 1.6 | 8.0 | 0.00 | 0.00 | 0.00 | 47 | 1008.6 |
| 20260504014503 | 22 | 133 | 1.6 | 4.8 | 0.00 | 0.00 | 0.00 | 47 | 1008.5 |
| 20260504013603 | 22 | 134 | 1.6 | 3.2 | 0.00 | 0.00 | 0.00 | 47 | 1008.4 |
| 20260504012703 | 22 | 133 | 1.6 | 3.2 | 0.00 | 0.00 | 0.00 | 47 | 1008.4 |
| 20260504011803 | 22 | 143 | 1.6 | 3.2 | 0.00 | 0.00 | 0.00 | 46 | 1008.3 |
| 20260504010903 | 22 | 133 | 1.6 | 3.2 | 0.00 | 0.00 | 0.00 | 46 | 1008.2 |
| 20260504010003 | 22 | 132 | 1.6 | 1.6 | 0.00 | 0.00 | 0.00 | 45 | 1008.3 |
| 20260504005403 | 23 | 134 | 1.6 | 3.2 | 0.00 | 0.00 | 0.00 | 44 | 1008.2 |
| 20260504004503 | 23 | 128 | 1.6 | 3.2 | 0.00 | 0.00 | 0.00 | 44 | 1008.3 |
| 20260504003603 | 23 | 138 | 1.6 | 4.8 | 0.00 | 0.00 | 0.00 | 42 | 1008.3 |
| 20260504002703 | 23 | 138 | 1.6 | 6.4 | 0.00 | 0.00 | 0.00 | 42 | 1008.4 |
| 20260504001825 | 23 | 138 | 3.2 | 9.7 | 0.00 | 0.00 | 0.00 | 41 | 1008.4 |
| 20260504000903 | 24 | 140 | 1.6 | 4.8 | 0.00 | 0.00 | 0.00 | 41 | 1008.3 |
| 20260504000003 | 24 | 143 | 3.2 | 11.3 | 0.00 | 0.00 | 0.00 | 40 | 1008.4 |
| 20260503235403 | 24 | 140 | 3.2 | 11.3 | 0.00 | 0.00 | 0.00 | 39 | 1008.4 |
| 20260503234524 | 25 | 144 | 3.2 | 9.7 | 0.00 | 0.00 | 0.00 | 38 | 1008.5 |
| 20260503233603 | 25 | 148 | 3.2 | 11.3 | 0.00 | 0.00 | 0.00 | 39 | 1008.5 |
| 20260503232703 | 25 | 156 | 3.2 | 11.3 | 0.00 | 0.00 | 0.00 | 38 | 1008.6 |
| 20260503231803 | 25 | 145 | 3.2 | 14.5 | 0.00 | 0.00 | 0.00 | 37 | 1008.7 |
| 20260503230903 | 25 | 168 | 3.2 | 11.3 | 0.00 | 0.00 | 0.00 | 36 | 1008.7 |
| 20260503230003 | 25 | 154 | 3.2 | 12.9 | 0.00 | 0.00 | 0.00 | 36 | 1008.7 |
| 20260503225403 | 25 | 145 | 3.2 | 12.9 | 0.00 | 0.00 | 0.00 | 36 | 1008.9 |
| 20260503224503 | 25 | 305 | 4.8 | 17.7 | 0.00 | 0.00 | 0.00 | 35 | 1009.0 |
| 20260503223603 | 25 | 195 | 4.8 | 17.7 | 0.00 | 0.00 | 0.00 | 35 | 1009.0 |
| 20260503222724 | 25 | 174 | 4.8 | 14.5 | 0.00 | 0.00 | 0.00 | 34 | 1009.0 |
| 20260503221803 | 25 | 316 | 4.8 | 16.1 | 0.00 | 0.00 | 0.00 | 34 | 1009.1 |